DW3929 Weather Reports


Display with metric or nautical units.
time (UTC)temp
F
wind
direction
speed
MPH
gust
MPH
rain 1hr
in
rain 24hr
in
rain mn
in
humidity
%
barometer
mb
20260506202319 81 360 5.0 12.0 0.00 0.00 0.00 78 1009.6
20260506201818 81 360 4.0 11.0 0.00 0.00 0.00 79 1009.6
20260506201317 81 360 4.0 14.0 0.00 0.00 0.00 78 1009.7
20260506200815 81 360 4.0 14.0 0.00 0.00 0.00 79 1009.5
20260506200316 81 360 3.0 10.0 0.00 0.00 0.00 78 1009.6
20260506195817 81 360 4.0 10.0 0.00 0.00 0.00 79 1009.6
20260506195315 80 360 3.0 10.0 0.00 0.00 0.00 79 1009.5
20260506194816 80 360 5.0 10.0 0.00 0.00 0.00 77 1009.5
20260506194315 81 360 3.0 12.0 0.00 0.00 0.00 78 1009.7
20260506193815 81 360 6.0 12.0 0.00 0.00 0.00 78 1009.7
20260506193315 81 360 4.0 9.0 0.00 0.00 0.00 78 1009.6
20260506192813 80 360 3.0 9.0 0.00 0.00 0.00 78 1009.6
20260506192312 80 360 4.0 12.0 0.00 0.00 0.00 77 1009.6
20260506191830 80 360 3.0 12.0 0.00 0.00 0.00 77 1009.6
20260506191330 81 360 3.0 11.0 0.00 0.00 0.00 78 1009.6
20260506190849 80 360 5.0 11.0 0.00 0.00 0.00 78 1009.8
20260506190327 80 360 4.0 9.0 0.00 0.00 0.00 78 1009.8
20260506185814 79 360 3.0 8.0 0.00 0.00 0.00 78 1009.8
20260506185330 79 360 2.0 8.0 0.00 0.00 0.00 79 1009.9
20260506184831 79 360 4.0 9.0 0.00 0.00 0.00 79 1009.7
20260506184329 78 360 4.0 9.0 0.00 0.00 0.00 79 1009.7
20260506183827 78 360 2.0 11.0 0.00 0.00 0.00 81 1009.9
20260506183325 77 360 4.0 11.0 0.00 0.00 0.00 81 1009.9
20260506182842 77 360 3.0 9.0 0.00 0.00 0.00 82 1010.0
20260506182315 76 360 4.0 8.0 0.00 0.00 0.00 84 1009.9
20260506181816 75 360 1.0 9.0 0.00 0.00 0.00 84 1009.9
20260506181328 75 360 3.0 10.0 0.00 0.00 0.00 83 1009.9
20260506180828 75 360 5.0 11.0 0.00 0.00 0.00 83 1009.9
20260506180326 74 360 4.0 11.0 0.00 0.00 0.00 84 1009.9
20260506175825 73 360 3.0 10.0 0.00 0.00 0.00 88 1010.1
20260506175322 71 360 5.0 10.0 0.00 0.00 0.00 90 1010.1
20260506174821 70 360 4.0 11.0 0.00 0.00 0.00 90 1010.1
20260506174320 69 360 3.0 8.0 0.00 0.00 0.00 91 1010.3
20260506173820 69 360 1.0 11.0 0.00 0.00 0.00 91 1010.5
20260506173318 69 360 3.0 11.0 0.00 0.00 0.00 90 1010.8
20260506172817 69 360 4.0 13.0 0.00 0.00 0.00 88 1010.8
20260506172317 70 360 4.0 12.0 0.00 0.00 0.00 86 1010.9
20260506171814 71 360 5.0 14.0 0.00 0.00 0.00 85 1011.1
20260506171334 72 360 6.0 14.0 0.00 0.00 0.00 84 1011.1
20260506170831 74 360 7.0 13.0 0.00 0.00 0.00 83 1011.0
20260506170330 76 360 7.0 21.0 0.00 0.00 0.00 80 1010.9
20260506165829 79 360 11.0 21.0 0.00 0.00 0.00 77 1010.9
20260506165318 82 360 3.0 10.0 0.00 0.00 0.00 86 1010.6
20260506164817 82 360 4.0 10.0 0.00 0.00 0.00 88 1010.6
20260506164332 81 360 3.0 6.0 0.00 0.00 0.00 89 1010.5
20260506163832 81 360 2.0 6.0 0.00 0.00 0.00 90 1010.7
20260506163330 80 360 2.0 5.0 0.00 0.00 0.00 90 1010.7
20260506162830 80 360 2.0 6.0 0.00 0.00 0.00 90 1010.8
20260506162329 80 360 2.0 8.0 0.00 0.00 0.00 91 1010.8
20260506161825 80 360 3.0 8.0 0.00 0.00 0.00 90 1010.8
20260506161321 80 360 3.0 5.0 0.00 0.00 0.00 92 1011.0
20260506160819 79 360 1.0 5.0 0.00 0.00 0.00 91 1011.0
20260506160317 79 360 3.0 5.0 0.00 0.00 0.00 91 1010.9
20260506155816 79 360 1.0 5.0 0.00 0.00 0.00 92 1010.8
20260506155314 79 360 2.0 5.0 0.00 0.00 0.00 92 1010.7
20260506154815 79 360 3.0 5.0 0.00 0.00 0.00 92 1010.5
20260506154314 79 360 2.0 4.0 0.00 0.00 0.00 92 1010.4
20260506153813 79 360 1.0 4.0 0.00 0.00 0.00 92 1010.2
20260506153330 79 360 2.0 4.0 0.00 0.00 0.00 92 1010.0
20260506152829 79 360 0.0 3.0 0.00 0.00 0.00 92 1009.8
20260506152326 79 360 1.0 3.0 0.00 0.00 0.00 92 1009.6
20260506151825 79 360 1.0 3.0 0.00 0.00 0.00 92 1009.6
20260506151324 79 360 1.0 3.0 0.00 0.00 0.00 92 1009.5
20260506150825 79 360 1.0 3.0 0.00 0.00 0.00 92 1009.5
20260506150318 79 360 1.0 4.0 0.00 0.00 0.00 93 1009.4
20260506145817 78 360 1.0 3.0 0.00 0.00 0.00 93 1009.4
20260506145314 78 360 1.0 4.0 0.00 0.00 0.00 93 1009.2
20260506144813 78 360 1.0 4.0 0.00 0.00 0.00 93 1009.4
20260506144313 78 360 2.0 4.0 0.00 0.00 0.00 94 1009.3
20260506143812 78 360 0.0 2.0 0.00 0.00 0.00 94 1009.4
20260506143325 78 360 1.0 2.0 0.00 0.00 0.00 94 1009.5
20260506142825 78 360 1.0 3.0 0.00 0.00 0.00 94 1009.5
20260506142320 78 360 0.0 3.0 0.00 0.00 0.00 93 1009.5
20260506141818 78 360 1.0 3.0 0.00 0.00 0.00 93 1009.3
20260506141336 78 360 1.0 3.0 0.00 0.00 0.00 94 1009.1
20260506140814 78 360 0.0 2.0 0.00 0.00 0.00 94 1009.0
20260506140312 78 360 1.0 2.0 0.00 0.00 0.00 94 1008.8
20260506135813 78 360 0.0 3.0 0.00 0.00 0.00 94 1008.7
20260506135351 77 360 1.0 3.0 0.00 0.00 0.00 94 1008.5
20260506134829 77 360 0.0 5.0 0.00 0.00 0.00 94 1008.4
20260506134323 77 360 1.0 5.0 0.00 0.00 0.00 95 1008.4
20260506133820 77 360 1.0 4.0 0.00 0.00 0.00 95 1008.4
20260506133341 77 360 2.0 4.0 0.00 0.00 0.00 95 1008.4
20260506132817 77 360 2.0 4.0 0.00 0.00 0.00 96 1008.4
20260506132336 77 360 1.0 2.0 0.00 0.00 0.00 96 1008.4
20260506131815 76 360 1.0 4.0 0.00 0.00 0.00 96 1008.3
20260506131315 76 360 2.0 4.0 0.00 0.00 0.00 96 1008.4
20260506130814 76 360 2.0 3.0 0.00 0.00 0.00 97 1008.3
20260506130313 76 360 0.0 2.0 0.00 0.00 0.00 97 1008.3
20260506125812 76 360 0.0 2.0 0.00 0.00 0.00 97 1008.4
20260506125312 76 360 1.0 2.0 0.00 0.00 0.00 97 1008.5
20260506124850 76 360 0.0 2.0 0.00 0.00 0.00 97 1008.6
20260506124328 76 360 0.0 1.0 0.00 0.00 0.00 96 1008.7
20260506123828 76 360 0.0 1.0 0.00 0.00 0.00 96 1008.6
20260506123328 76 360 0.0 1.0 0.00 0.00 0.00 96 1008.6
20260506122832 76 360 0.0 2.0 0.00 0.00 0.00 96 1008.5
20260506122330 76 360 1.0 2.0 0.00 0.00 0.00 96 1008.4
20260506121829 76 360 0.0 2.0 0.00 0.00 0.00 96 1008.4
20260506121328 75 360 0.0 2.0 0.00 0.00 0.00 96 1008.3
20260506120829 76 360 0.0 2.0 0.00 0.00 0.00 96 1008.3
20260506120320 76 360 0.0 2.0 0.00 0.00 0.00 96 1008.3
20260506115819 76 360 1.0 2.0 0.00 0.00 0.00 96 1008.3
20260506115317 76 360 1.0 5.0 0.00 0.00 0.00 96 1008.2
20260506114818 76 360 0.0 5.0 0.00 0.00 0.00 96 1008.1
20260506114312 76 360 0.0 2.0 0.00 0.00 0.00 96 1008.1
20260506113827 76 360 0.0 2.0 0.00 0.00 0.00 96 1008.1
20260506113327 76 360 0.0 3.0 0.00 0.00 0.00 96 1008.2
20260506112847 76 360 1.0 3.0 0.00 0.00 0.00 96 1008.2
20260506112327 76 360 1.0 4.0 0.00 0.00 0.00 96 1008.1
20260506111826 76 360 2.0 5.0 0.00 0.00 0.00 96 1007.9
20260506111324 76 360 3.0 5.0 0.00 0.00 0.00 96 1007.9
20260506110824 76 360 3.0 5.0 0.00 0.00 0.00 96 1007.9
20260506110323 76 360 2.0 6.0 0.00 0.00 0.00 96 1007.9
20260506105823 76 360 1.0 6.0 0.00 0.00 0.00 96 1007.8
20260506105343 76 360 3.0 6.0 0.00 0.00 0.00 96 1007.7
20260506104820 76 360 2.0 6.0 0.00 0.00 0.00 95 1007.7
20260506104313 76 360 2.0 8.0 0.00 0.00 0.00 95 1007.8
20260506103834 76 360 4.0 8.0 0.00 0.00 0.00 95 1007.7
20260506103313 76 360 2.0 9.0 0.00 0.00 0.00 95 1007.6
20260506102812 76 360 5.0 9.0 0.00 0.00 0.00 95 1007.7
20260506102312 76 360 6.0 9.0 0.00 0.00 0.00 95 1007.6
20260506101850 76 360 4.0 9.0 0.00 0.00 0.00 95 1007.7
20260506101327 76 360 5.0 9.0 0.00 0.00 0.00 95 1007.6
20260506100828 76 360 4.0 9.0 0.00 0.00 0.00 95 1007.6
20260506100324 76 360 4.0 11.0 0.00 0.00 0.00 95 1007.6
20260506095823 76 360 4.0 11.0 0.00 0.00 0.00 95 1007.4
20260506095324 76 360 5.0 11.0 0.00 0.00 0.00 95 1007.4
20260506094823 76 360 5.0 11.0 0.00 0.00 0.00 95 1007.2
20260506094336 76 360 3.0 10.0 0.00 0.00 0.00 95 1007.1
20260506093814 76 360 5.0 10.0 0.00 0.00 0.00 95 1007.1
20260506093314 76 360 2.0 12.0 0.00 0.00 0.00 95 1007.1
20260506092813 76 360 5.0 14.0 0.00 0.00 0.00 95 1007.0
20260506092332 76 360 5.0 13.0 0.00 0.00 0.00 95 1007.1
20260506091830 76 360 6.0 13.0 0.00 0.00 0.00 95 1007.0
20260506091332 76 360 6.0 12.0 0.00 0.00 0.00 95 1006.9
20260506090851 76 360 6.0 12.0 0.00 0.00 0.00 95 1007.0
20260506090328 76 360 4.0 10.0 0.00 0.00 0.00 95 1007.1
20260506085828 76 360 7.0 10.0 0.00 0.00 0.00 95 1007.2
20260506085347 76 360 4.0 8.0 0.00 0.00 0.00 95 1007.3
20260506084826 76 360 4.0 8.0 0.00 0.00 0.00 96 1007.3
20260506084325 76 360 4.0 11.0 0.00 0.00 0.00 96 1007.2
20260506083823 76 360 6.0 11.0 0.00 0.00 0.00 96 1007.1
20260506083312 76 360 5.0 11.0 0.00 0.00 0.00 96 1007.2
20260506082827 76 360 3.0 11.0 0.00 0.00 0.00 96 1007.2
20260506082327 76 360 4.0 8.0 0.00 0.00 0.00 96 1007.3
20260506081846 76 360 5.0 11.0 0.00 0.00 0.00 95 1007.2
20260506081344 76 360 5.0 9.0 0.00 0.00 0.00 95 1007.2
20260506080844 76 360 5.0 10.0 0.00 0.00 0.00 95 1007.2
20260506080318 76 360 6.0 10.0 0.00 0.00 0.00 95 1007.1
20260506073330 76 360 6.0 10.0 0.00 0.00 0.00 94 1007.5
20260506072829 76 360 5.0 11.0 0.00 0.00 0.00 94 1007.5
20260506072324 76 360 4.0 11.0 0.00 0.00 0.00 94 1007.6
20260506071823 76 360 6.0 12.0 0.00 0.00 0.00 95 1007.5
20260506071322 76 360 8.0 12.0 0.00 0.00 0.00 95 1007.6
20260506070842 76 360 5.0 11.0 0.00 0.00 0.00 95 1007.7
20260506070320 76 360 6.0 12.0 0.00 0.00 0.00 95 1007.6
20260506062313 76 360 7.0 15.0 0.00 0.00 0.00 95 1007.8
20260506061812 76 360 5.0 9.0 0.00 0.00 0.00 95 1007.8
20260506061349 76 360 4.0 10.0 0.00 0.00 0.00 95 1007.9
20260506060825 76 360 6.0 10.0 0.00 0.00 0.00 95 1007.9
20260506060314 76 360 3.0 9.0 0.00 0.00 0.00 95 1007.8
20260506051337 76 360 3.0 8.0 0.00 0.00 0.00 94 1007.9
20260506050813 76 360 3.0 8.0 0.00 0.00 0.00 94 1007.9
20260506050312 76 360 2.0 8.0 0.00 0.00 0.00 94 1007.9
20260506044833 77 360 3.0 9.0 0.00 0.00 0.00 93 1007.8
20260506044330 77 360 3.0 11.0 0.00 0.00 0.00 93 1007.8
20260506043829 77 360 4.0 11.0 0.00 0.00 0.00 93 1007.9
20260506043348 77 360 4.0 11.0 0.00 0.00 0.00 93 1007.9
20260506042827 77 360 4.0 11.0 0.00 0.00 0.00 93 1007.8
20260506042327 77 360 6.0 11.0 0.00 0.00 0.00 93 1007.7
20260506041828 77 360 5.0 11.0 0.00 0.00 0.00 93 1007.6
20260506041347 77 360 5.0 10.0 0.00 0.00 0.00 92 1007.7
20260506040824 77 360 4.0 12.0 0.00 0.00 0.00 92 1007.6
20260506040325 77 360 6.0 12.0 0.00 0.00 0.00 92 1007.6
20260506035823 77 360 5.0 12.0 0.00 0.00 0.00 92 1007.7
20260506035324 77 360 5.0 11.0 0.00 0.00 0.00 92 1007.6
20260506034824 77 360 5.0 11.0 0.00 0.00 0.00 91 1007.5
20260506034324 77 360 4.0 13.0 0.00 0.00 0.00 91 1007.3
20260506033813 78 360 5.0 14.0 0.00 0.00 0.00 91 1007.1
20260506033351 78 360 7.0 14.0 0.00 0.00 0.00 91 1007.1
20260506032830 78 360 4.0 12.0 0.00 0.00 0.00 91 1007.0
20260506032349 78 360 5.0 12.0 0.00 0.00 0.00 90 1007.0
20260506031829 78 360 5.0 10.0 0.00 0.00 0.00 90 1006.9
20260506031325 78 360 5.0 11.0 0.00 0.00 0.00 90 1006.8
20260506030823 78 360 5.0 14.0 0.00 0.00 0.00 90 1006.7
20260506030322 78 360 7.0 14.0 0.00 0.00 0.00 89 1006.5
20260506025819 78 360 7.0 14.0 0.00 0.00 0.00 89 1006.4
20260506025319 78 360 7.0 12.0 0.00 0.00 0.00 89 1006.4
20260506024819 79 360 6.0 11.0 0.00 0.00 0.00 89 1006.3
20260506024319 79 360 5.0 13.0 0.00 0.00 0.00 88 1006.3
20260506023818 79 360 6.0 13.0 0.00 0.00 0.00 88 1006.3
20260506023319 79 360 6.0 13.0 0.00 0.00 0.00 88 1006.2
20260506022816 79 360 5.0 13.0 0.00 0.00 0.00 87 1006.2
20260506022316 79 360 8.0 12.0 0.00 0.00 0.00 87 1006.2
20260506021812 79 360 6.0 11.0 0.00 0.00 0.00 87 1006.1
20260506021313 80 360 5.0 10.0 0.00 0.00 0.00 87 1006.2
20260506020831 80 360 5.0 9.0 0.00 0.00 0.00 86 1006.2
20260506020332 80 360 3.0 8.0 0.00 0.00 0.00 86 1006.2
20260506015830 80 360 3.0 8.0 0.00 0.00 0.00 86 1006.1
20260506015331 80 360 4.0 11.0 0.00 0.00 0.00 86 1006.1
20260506014830 80 360 3.0 12.0 0.00 0.00 0.00 85 1006.0
20260506014329 81 360 7.0 12.0 0.00 0.00 0.00 85 1006.0
20260506013848 81 360 3.0 8.0 0.00 0.00 0.00 84 1005.9
20260506013347 81 360 2.0 8.0 0.00 0.00 0.00 84 1005.8
20260506012844 81 360 3.0 10.0 0.00 0.00 0.00 83 1005.7
20260506012322 82 360 7.0 12.0 0.00 0.00 0.00 83 1005.7
20260506011821 82 360 6.0 12.0 0.00 0.00 0.00 83 1005.6
20260506011319 82 360 5.0 11.0 0.00 0.00 0.00 83 1005.7
20260506010819 82 360 6.0 11.0 0.00 0.00 0.00 83 1005.6
20260506010319 82 360 5.0 9.0 0.00 0.00 0.00 83 1005.4
20260506005820 82 360 4.0 8.0 0.00 0.00 0.00 82 1005.3
20260506005318 82 360 2.0 5.0 0.00 0.00 0.00 82 1005.3
20260506004816 83 360 2.0 5.0 0.00 0.00 0.00 82 1005.3
20260506004337 83 360 3.0 6.0 0.00 0.00 0.00 81 1005.3
20260506003816 83 360 3.0 6.0 0.00 0.00 0.00 81 1005.2
20260506003315 83 360 2.0 5.0 0.00 0.00 0.00 80 1005.1
20260506002813 83 360 2.0 5.0 0.00 0.00 0.00 80 1005.1
20260506002312 84 360 3.0 6.0 0.00 0.00 0.00 80 1005.0
20260506001852 84 360 3.0 6.0 0.00 0.00 0.00 79 1005.0
20260506001331 84 360 3.0 6.0 0.00 0.00 0.00 78 1004.9
20260506000831 85 360 3.0 6.0 0.00 0.00 0.00 78 1004.9
20260506000330 85 360 3.0 9.0 0.00 0.00 0.00 77 1004.9
20260505235828 84 360 4.0 9.0 0.00 0.00 0.00 77 1004.8
20260505235328 85 360 4.0 8.0 0.00 0.00 0.00 77 1004.7
20260505234828 85 360 4.0 8.0 0.00 0.00 0.00 77 1004.7
20260505234326 85 360 4.0 10.0 0.00 0.00 0.00 76 1004.8
20260505233824 85 360 6.0 11.0 0.00 0.00 0.00 76 1004.7
20260505233346 85 360 6.0 11.0 0.00 0.00 0.00 75 1004.6
20260505232826 86 360 4.0 12.0 0.00 0.00 0.00 75 1004.7
20260505232327 86 360 6.0 12.0 0.00 0.00 0.00 75 1004.7
20260505231824 86 360 4.0 11.0 0.00 0.00 0.00 76 1004.7
20260505231325 86 360 7.0 12.0 0.00 0.00 0.00 76 1004.7
20260505230824 86 360 7.0 12.0 0.00 0.00 0.00 75 1004.7
20260505230323 86 360 6.0 10.0 0.00 0.00 0.00 75 1004.7
20260505225839 87 360 4.0 10.0 0.00 0.00 0.00 74 1004.6
20260505225317 86 360 5.0 12.0 0.00 0.00 0.00 75 1004.7
20260505224817 86 360 5.0 13.0 0.00 0.00 0.00 74 1004.7
20260505224336 86 360 9.0 13.0 0.00 0.00 0.00 73 1004.7
20260505223813 86 360 5.0 13.0 0.00 0.00 0.00 75 1004.8
20260505223353 86 360 7.0 13.0 0.00 0.00 0.00 74 1004.8
20260505222812 86 360 6.0 11.0 0.00 0.00 0.00 74 1004.8
20260505222313 86 360 6.0 11.0 0.00 0.00 0.00 74 1004.9
20260505221814 86 360 5.0 11.0 0.00 0.00 0.00 75 1004.8
20260505221333 86 360 6.0 11.0 0.00 0.00 0.00 75 1004.9
20260505220852 86 360 5.0 15.0 0.00 0.00 0.00 74 1005.0
20260505220350 86 360 5.0 15.0 0.00 0.00 0.00 72 1005.0
20260505215814 87 360 6.0 13.0 0.00 0.00 0.00 74 1005.1
20260505215331 87 360 7.0 13.0 0.00 0.00 0.00 75 1005.1
20260505214831 86 360 8.0 16.0 0.00 0.00 0.00 75 1005.2
20260505214331 86 360 8.0 17.0 0.00 0.00 0.00 74 1005.2
20260505213829 86 360 5.0 17.0 0.00 0.00 0.00 76 1005.4
20260505213328 86 360 5.0 15.0 0.00 0.00 0.00 76 1005.3
20260505212829 86 360 8.0 15.0 0.00 0.00 0.00 74 1005.5
20260505212327 86 360 5.0 13.0 0.00 0.00 0.00 74 1005.5
20260505211825 86 360 4.0 15.0 0.00 0.00 0.00 74 1005.4
20260505211323 86 360 7.0 13.0 0.00 0.00 0.00 74 1005.5
20260505210821 85 360 8.0 15.0 0.00 0.00 0.00 75 1005.5
20260505210320 85 360 8.0 15.0 0.00 0.00 0.00 76 1005.6
20260505205839 85 360 4.0 14.0 0.00 0.00 0.00 75 1005.8
20260505205317 86 360 8.0 14.0 0.00 0.00 0.00 75 1005.9
20260505204817 86 360 7.0 12.0 0.00 0.00 0.00 74 1006.0
20260505204336 86 360 5.0 16.0 0.00 0.00 0.00 75 1006.1
20260505203814 86 360 9.0 16.0 0.00 0.00 0.00 73 1006.1
20260505203316 86 360 8.0 17.0 0.00 0.00 0.00 75 1006.1
20260505202835 86 360 8.0 17.0 0.00 0.00 0.00 75 1006.3